User: anonymous
Location: Brno
(49.2000°N, 16.6330°E)
Time: 13:04:42
(UTC+02:00)
Language:

Cosmos 332 Rocket - Orbit

View from above orbital plane
View from above orbital plane
View from above satellite
View from above satellite

Ground track
Ground track

The orbit data is extracted from the following two-line orbital elements,

1 04370U 70028B   14107.18217199  .00000531  00000-0  11906-3 0  6134
2 04370 074.0386 134.9402 0016493 342.7944 079.7255 14.59034539843185
Epoch (UTC): 17 April 2014 04:22:19
Eccentricity: 0.0016493
inclination: 74.0386°
perigee height: 684 km
apogee height: 708 km
right ascension of ascending node: 134.9402°
argument of perigee: 342.7944°
revolutions per day: 14.59034539
mean anomaly at epoch: 79.7255°
orbit number at epoch: 84318

The dashed part of the orbit path shows where the satellite is in the earth's shadow,  

DLR